[[{"header":{"parameterUnit":"m.s-1","parameterCategory":1,"la1":30.2992,"la2":30.254,"lo1":-89.0895,"lo2":-89.0443,"dy":0.0025,"dx":0.0025,"nx":19,"ny":19,"refTime":"2026-04-10T09:00:00:Z","depth":0,"parameterNumber":2,"parameterNumberName":"U-component_of_WINDS"},"data":[0,0,0,-1.3291,-1.3293,-1.341,-1.3411,-1.3574,-1.3576,0,0,0,0,0,0,0,0,0,0,0,-1.3264,-1.3265,-1.3291,-1.3294,-1.341,-1.3411,-1.3574,-1.3576,0,0,0,0,0,0,0,0,0,0,0,-1.3263,-1.3265,-1.3267,-1.3294,-1.341,-1.3411,-1.3573,-1.348,0,0,0,0,0,0,0,0,0,0,-1.3365,-1.3348,-1.3265,-1.3267,-1.3295,-1.341,-1.3411,-1.3476,-1.3486,-1.3527,0,-1.3564,0,-1.3573,-1.3587,-1.3588,0,0,0,-1.3288,-1.3339,-1.3363,-1.3267,-1.3296,-1.341,-1.3356,-1.3481,-1.3493,-1.3541,-1.3567,-1.3572,-1.3575,-1.3589,-1.3589,-1.3842,-1.3843,0,0,-1.3282,-1.329,-1.3355,-1.3371,-1.3353,-1.3352,-1.336,-1.3488,-1.3517,-1.3567,-1.3576,-1.3578,-1.359,-1.3591,-1.384,-1.3842,0,0,0,-1.3267,-1.3285,-1.3306,-1.3365,-1.3385,-1.3356,-1.3364,-1.3512,-1.3518,-1.3578,-1.358,-1.3591,-1.3593,-1.3839,-1.3841,-1.3922,0,0,0,-1.3263,-1.3277,-1.3304,-1.331,-1.3383,-1.345,-1.3385,-1.3509,-1.3523,-1.3579,-1.3591,-1.3595,-1.3837,-1.384,-1.3916,-1.396,0,0,0,-1.3254,-1.3275,-1.3295,-1.331,-1.336,-1.3447,-1.3461,-1.3512,-1.3525,-1.3588,-1.3595,-1.3836,-1.3839,-1.3911,-1.3952,-1.4031,0,0,0,-1.3247,-1.3365,-1.3296,-1.3429,-1.3359,-1.3495,-1.346,-1.3561,-1.3624,-1.3592,-1.3837,-1.3841,-1.391,-1.3947,-1.4026,-1.4102,-1.4133,0,0,-1.34,-1.3383,-1.346,-1.3403,-1.3554,-1.3477,-1.364,-1.369,-1.3688,-1.3791,-1.3797,-1.3918,-1.3951,-1.403,-1.43,-1.4326,0,0,0,-1.3512,-1.3568,-1.3606,-1.3667,-1.3708,-1.3747,-1.3772,-1.379,-1.3877,-1.3742,-1.3966,-1.3985,-1.4031,-1.4068,-1.4089,-1.4129,-1.3857,-1.3856,-1.3856,-1.3743,-1.3734,-1.3862,-1.3868,-1.3927,-1.3951,-1.3998,-1.4028,-1.4001,-1.4054,-1.4086,-1.4251,-1.4294,-1.431,-1.4352,-1.4122,-1.4122,-1.4122,-1.4123,-1.397,-1.405,-1.4011,-1.4122,-1.4111,-1.4204,-1.4231,-1.4209,-1.4295,-1.4226,-1.4266,-1.4196,-1.4337,-1.4374,-1.4129,-1.4128,-1.4127,-1.4126,-1.4126,-1.4125,-1.4161,-1.4181,-1.4268,-1.4336,-1.4336,-1.442,-1.4407,-1.4395,-1.4434,-1.4468,-1.4467,-1.4467,-1.445,-1.4451,-1.4452,-1.4452,-1.4452,-1.4453,-1.4279,-1.4298,-1.4371,-1.4423,-1.4461,-1.4508,-1.4532,-1.4568,-1.4606,-1.459,-1.459,-1.4561,-1.4351,-1.4301,-1.4462,-1.446,-1.4459,-1.4458,-1.4458,-1.452,-1.4463,-1.4576,-1.4613,-1.4674,-1.4744,-1.4723,-1.4799,-1.4827,-1.487,-1.483,-1.4676,-1.4659,-1.4642,-1.4601,-1.4829,-1.4829,-1.4829,-1.4829,-1.4654,-1.4642,-1.4755,-1.4816,-1.4874,-1.4867,-1.4996,-1.5015,-1.5025,-1.5042,-1.5006,-1.4949,-1.4932,-1.4925,-1.4902,-1.4863,-1.5154,-1.5154,-1.5154,-1.4803,-1.4796,-1.491,-1.4918,-1.4964,-1.5004,-1.5126,-1.5198,-1.5198,-1.5167,-1.5056,-1.5043,-1.495,-1.4919,-1.4892,-1.4856,-1.4785,0,0]},{"header":{"parameterUnit":"m.s-1","parameterCategory":1,"la1":30.2992,"la2":30.254,"lo1":-89.0895,"lo2":-89.0443,"dy":0.0025,"dx":0.0025,"nx":19,"ny":19,"refTime":"2026-04-10T09:00:00:Z","depth":0,"parameterNumber":3,"parameterNumberName":"V-component_of_WINDS"},"data":[0,0,0,-3.009,-3.0094,-3.0289,-3.0289,-3.0531,-3.0533,0,0,0,0,0,0,0,0,0,0,0,-3.003,-3.0031,-3.009,-3.0095,-3.0289,-3.029,-3.0531,-3.0533,0,0,0,0,0,0,0,0,0,0,0,-3.0029,-3.0031,-3.0033,-3.0095,-3.0288,-3.029,-3.053,-3.0386,0,0,0,0,0,0,0,0,0,0,-3.0198,-3.014,-3.0031,-3.0033,-3.0096,-3.0288,-3.029,-3.0379,-3.0395,-3.044,0,-3.0482,0,-3.0511,-3.0549,-3.055,0,0,0,-3.0096,-3.0127,-3.0182,-3.0033,-3.0098,-3.0288,-3.0202,-3.0388,-3.0406,-3.0461,-3.0485,-3.0494,-3.0515,-3.055,-3.0552,-3.0813,-3.0814,0,0,-3.0086,-3.0063,-3.0169,-3.0193,-3.0165,-3.0195,-3.0208,-3.0399,-3.0423,-3.0486,-3.05,-3.0519,-3.0552,-3.0554,-3.0812,-3.0814,0,0,0,-3.0054,-3.0056,-3.0106,-3.0183,-3.0219,-3.0201,-3.0215,-3.0414,-3.0432,-3.0503,-3.0522,-3.0553,-3.0556,-3.0811,-3.0813,-3.0849,0,0,0,-3.0047,-3.0037,-3.0101,-3.0089,-3.0215,-3.0319,-3.0226,-3.0419,-3.0442,-3.0521,-3.0553,-3.0559,-3.081,-3.0812,-3.0845,-3.087,0,0,0,-3.0018,-3.0034,-3.0061,-3.0088,-3.0171,-3.0317,-3.0346,-3.0425,-3.0453,-3.055,-3.0559,-3.0809,-3.0812,-3.0842,-3.0864,-3.0932,0,0,0,-2.998,-3.009,-3.0061,-3.019,-3.0169,-3.0338,-3.0345,-3.0472,-3.0559,-3.0555,-3.081,-3.0813,-3.0841,-3.0861,-3.0929,-3.0986,-3.1008,0,0,-3.0106,-3.0104,-3.0182,-3.0162,-3.033,-3.031,-3.0483,-3.0583,-3.0612,-3.0744,-3.0751,-3.0846,-3.0864,-3.0932,-3.1136,-3.1153,0,0,0,-3.0214,-3.0269,-3.0319,-3.0401,-3.0481,-3.0551,-3.0627,-3.0664,-3.0778,-3.0676,-3.089,-3.0901,-3.0941,-3.097,-3.0984,-3.1021,-3.0825,-3.0824,-3.0824,-3.0359,-3.0391,-3.0522,-3.0577,-3.0656,-3.0734,-3.0801,-3.0863,-3.0872,-3.0921,-3.0961,-3.1082,-3.1114,-3.1125,-3.1163,-3.0993,-3.0993,-3.0994,-3.0994,-3.0546,-3.063,-3.0639,-3.0769,-3.0801,-3.0909,-3.0987,-3.0989,-3.1094,-3.1054,-3.1092,-3.1046,-3.1143,-3.1177,-3.0997,-3.0996,-3.0996,-3.0996,-3.0995,-3.0646,-3.0692,-3.0735,-3.0858,-3.0948,-3.0999,-3.11,-3.1125,-3.1149,-3.1186,-3.123,-3.123,-3.1233,-3.1205,-3.1206,-3.1206,-3.1206,-3.1207,-3.1207,-3.0733,-3.0781,-3.0863,-3.0957,-3.1013,-3.1089,-3.1167,-3.1222,-3.129,-3.13,-3.1301,-3.1303,-3.1147,-3.1107,-3.1214,-3.1212,-3.1212,-3.1211,-3.121,-3.0912,-3.0875,-3.1003,-3.1059,-3.117,-3.1258,-3.1289,-3.1399,-3.1448,-3.1497,-3.1491,-3.1371,-3.1371,-3.1359,-3.1327,-3.1484,-3.1484,-3.1484,-3.1484,-3.0997,-3.0999,-3.1135,-3.1223,-3.1312,-3.1352,-3.1494,-3.1555,-3.1612,-3.1644,-3.1624,-3.1583,-3.157,-3.1577,-3.1561,-3.1531,-3.1737,-3.1737,-3.1738,-3.1109,-3.1121,-3.1238,-3.1294,-3.1382,-3.1457,-3.1592,-3.1691,-3.1747,-3.1748,-3.1669,-3.1659,-3.1592,-3.1569,-3.1569,-3.1544,-3.1489,0,0]}]]